STARLINK-4282, 53019

Orbit data source: Space-Track

STARLINK-4282, 53019 is a payload satellite owned by SpaceX/Seattle (US) in LEO that was launched on Thu, 07 Jul 2022 UTC via an FALCON 9 launch vehicle from the Air Force Eastern Test Range (AFETR). Payload-class satellites include a variety of spacecraft equipped with specific instruments for various scientific and technological missions. These include communications satellites like Starlink; space stations such as the ISS; scientific satellites like the Hubble; Earth observation satellites from companies like Planet Labs, Umbra, and HawkEye 360; GPS; miniature CubeSats for education and research; and military/defense satellites.

Loading next visibility...
Identifier
53019, 2022-076AK
Orbit
LEO
Country
Flag of USUS
Related business
Manufacturer
SpaceX/Seattle
Mission
Operational Commercial Communications
Bus & Motor
STARLINK, Unknown motor
Mass
297 kg wet, ~275 kg dry
Launch date (UTC)
2022-07-07 (4 years ago)
Launch vehicle
FALCON 9
Launch site
Air Force Eastern Test Range (AFETR)
Object type
Payload
Rocket body
Debris
Shape & HBR
Box + 1 Pan, 10.1 m
Radar Cross Section
13.562 m², Large (>1 m²)

Expand to show TLE details & history
Last TLE update: 3 days ago

TLE from 3 days ago
0 STARLINK-4282
1 53019U 22076AK  26170.89635231  .00000166  00000-0  29016-4 0  9993
2 53019  53.1615 345.3384 0001198  87.0090 273.1038 15.08017358218412
Epoch: 2026-06-19T21:30Z
TLE epoch observation values (Epoch: 2026-06-19T21:30:44.839Z)
Latitude
-0.00004°
Longitude
114.53279°
Altitude
543.105 km
Speed
7.592 km/s
True Right ascension
23h 01m 21s
True Declination
0° 00' 00"
Sunlit
Object was in daylight at epoch
Visualization orbit readout
Latitude
Unknown
Longitude
Unknown
Altitude
Unknown
Speed
Unknown
Apparent Right ascension
Unknown
Apparent Declination
Unknown
Sunlit
N/A
Visualization observer readout
Local Sidereal Time
21:35:39
Azimuth
Unknown
Elevation
Unknown
Doppler factor
Unknown
Orbital elements
Apogee altitude
543.342 km
Perigee altitude
541.684 km
Semi-major axis
6,920.65 km
Eccentricity
0.00012
Inclination
53.1615°
RAAN
345.3384°
Arg. of periapsis
87.009°
True anomaly
273.09009°
Mean anomaly
273.1038°
Eccentric anomaly
273.09695°
Mean motion
3.76984 °/min
Orbital period
95.49 mins
BSTAR
0.000029016
Loading maneuver chart data...
Computing Atmospheric mass density...
Loading historical data...
Loading historical data...
Loading historical data...
Loading historical data...
Loading historical data...
Loading historical data...
Loading historical data...

Documentation

Showing up to 5 results
|